EZS1359 LSGG-LATI

Flight info

Callsign EZS1359
Flight time 1h 34m
Altitude 37000
Route MEDAM1N MEDAM DCT NITAM DCT MOGBO DCT TOP DCT LURUT DCT EDUGI DCT AMUGO DCT PETAK PETAK3M
Aircraft A320/M-SDE3FGHIRWY/LB1

Departure

Time 2026-05-07 12:50
Airport Geneva International Airport (LSGG)

Arrival

Time 2026-05-07 14:25
Airport Tirana International Airport Mother Teresa (LATI)
Time Latitude Longitude Altitude Speed Heading
2026-05-07 12:21 46.23319 6.10976 1401 ft 0 kts 135°
2026-05-07 12:41 46.23331 6.10960 1403 ft 4 kts 143°
2026-05-07 12:41 46.23354 6.10938 1402 ft 4 kts 141°
2026-05-07 12:41 46.23370 6.10915 1404 ft 4 kts 121°
2026-05-07 12:41 46.23375 6.10883 1404 ft 4 kts 66°
2026-05-07 12:42 46.23360 6.10852 1397 ft 4 kts 45°
2026-05-07 12:42 46.23344 6.10828 1404 ft 2 kts 45°
2026-05-07 12:42 46.23343 6.10826 1404 ft 0 kts 45°
2026-05-07 12:45 46.23361 6.10853 1398 ft 9 kts 45°
2026-05-07 12:45 46.23403 6.10914 1402 ft 9 kts 45°
2026-05-07 12:45 46.23469 6.11010 1396 ft 16 kts 45°
2026-05-07 12:46 46.23550 6.11131 1398 ft 18 kts 46°
2026-05-07 12:46 46.23617 6.11148 1401 ft 11 kts 315°
2026-05-07 12:46 46.23666 6.11074 1385 ft 10 kts 318°
2026-05-07 12:46 46.23744 6.11136 1379 ft 20 kts 46°
2026-05-07 12:47 46.23851 6.11295 1376 ft 23 kts 45°
2026-05-07 12:47 46.23973 6.11474 1373 ft 26 kts 45°
2026-05-07 12:47 46.24103 6.11666 1367 ft 28 kts 45°
2026-05-07 12:47 46.24239 6.11865 1362 ft 28 kts 45°
2026-05-07 12:48 46.24376 6.12067 1367 ft 27 kts 45°
2026-05-07 12:48 46.24506 6.12256 1372 ft 26 kts 45°
2026-05-07 12:48 46.24639 6.12452 1367 ft 27 kts 45°
2026-05-07 12:48 46.24770 6.12641 1362 ft 24 kts 40°
2026-05-07 12:49 46.24892 6.12708 1365 ft 16 kts 17°
2026-05-07 12:49 46.24995 6.12732 1370 ft 14 kts 339°
2026-05-07 12:49 46.25002 6.12644 1370 ft 5 kts 223°
2026-05-07 12:49 46.24972 6.12602 1372 ft 12 kts 225°
2026-05-07 12:50 46.24748 6.12278 1372 ft 82 kts 225°
2026-05-07 12:50 46.24198 6.11470 1373 ft 141 kts 225°
2026-05-07 12:50 46.23400 6.10301 1459 ft 179 kts 225°
2026-05-07 12:50 46.22516 6.08997 2055 ft 185 kts 226°
2026-05-07 12:51 46.21603 6.07634 2543 ft 200 kts 227°
2026-05-07 12:51 46.20593 6.06098 2849 ft 221 kts 227°
2026-05-07 12:51 46.19462 6.04424 3266 ft 243 kts 226°
2026-05-07 12:51 46.18226 6.02636 3854 ft 258 kts 225°
2026-05-07 12:52 46.16912 6.00819 4672 ft 264 kts 218°
2026-05-07 12:52 46.15259 5.99655 5535 ft 269 kts 193°
2026-05-07 12:52 46.13390 5.99645 6420 ft 273 kts 166°
2026-05-07 12:52 46.11683 6.00852 7229 ft 277 kts 144°
2026-05-07 12:53 46.10153 6.02549 8088 ft 279 kts 143°
2026-05-07 12:53 46.08612 6.04278 8909 ft 282 kts 143°
2026-05-07 12:53 46.07060 6.06021 9721 ft 284 kts 143°
2026-05-07 12:53 46.06020 6.07187 10229 ft 287 kts 143°
2026-05-07 12:54 46.04382 6.09014 10527 ft 310 kts 143°
2026-05-07 12:54 46.02619 6.10971 10769 ft 330 kts 144°
2026-05-07 12:54 46.00769 6.13021 11346 ft 339 kts 144°
2026-05-07 12:54 45.98892 6.15099 12011 ft 343 kts 144°
2026-05-07 12:55 45.96983 6.17216 12681 ft 348 kts 144°
2026-05-07 12:55 45.95055 6.19348 13346 ft 352 kts 144°
2026-05-07 12:55 45.93101 6.21507 13976 ft 357 kts 144°
2026-05-07 12:55 45.91116 6.23697 14558 ft 361 kts 144°
2026-05-07 12:56 45.89120 6.25898 15158 ft 365 kts 144°
2026-05-07 12:56 45.87090 6.28130 15745 ft 368 kts 144°
2026-05-07 12:56 45.85046 6.30381 16308 ft 372 kts 144°
2026-05-07 12:56 45.82982 6.32654 16885 ft 376 kts 144°
2026-05-07 12:57 45.80894 6.34954 17470 ft 380 kts 144°
2026-05-07 12:57 45.78786 6.37271 18033 ft 384 kts 144°
2026-05-07 12:57 45.76652 6.39610 18524 ft 388 kts 144°
2026-05-07 12:57 45.74496 6.41969 19023 ft 392 kts 145°
2026-05-07 12:58 45.72321 6.44348 19519 ft 395 kts 145°
2026-05-07 12:58 45.70160 6.46707 19989 ft 397 kts 145°
2026-05-07 12:58 45.67951 6.49119 20468 ft 400 kts 145°
2026-05-07 12:58 45.65729 6.51540 20952 ft 403 kts 145°
2026-05-07 12:59 45.63484 6.53987 21429 ft 406 kts 145°
2026-05-07 12:59 45.61238 6.56437 21909 ft 408 kts 145°
2026-05-07 12:59 45.58970 6.58907 22379 ft 411 kts 145°
2026-05-07 12:59 45.56682 6.61391 22813 ft 414 kts 145°
2026-05-07 13:00 45.54382 6.63887 23237 ft 417 kts 145°
2026-05-07 13:00 45.52062 6.66400 23638 ft 420 kts 145°
2026-05-07 13:00 45.49759 6.68894 23980 ft 422 kts 145°
2026-05-07 13:00 45.47383 6.71463 24331 ft 425 kts 146°
2026-05-07 13:01 45.45045 6.73991 24681 ft 428 kts 146°
2026-05-07 13:01 45.42664 6.76563 25008 ft 430 kts 146°
2026-05-07 13:01 45.40275 6.79141 25322 ft 433 kts 146°
2026-05-07 13:01 45.37862 6.81742 25664 ft 435 kts 146°
2026-05-07 13:02 45.35442 6.84344 25953 ft 438 kts 146°
2026-05-07 13:02 45.33003 6.86961 26285 ft 440 kts 146°
2026-05-07 13:02 45.30551 6.89591 26632 ft 442 kts 147°
2026-05-07 13:02 45.28088 6.92229 26956 ft 445 kts 147°
2026-05-07 13:03 45.25683 6.95027 27278 ft 450 kts 140°
2026-05-07 13:03 45.23428 6.98136 27580 ft 453 kts 139°
2026-05-07 13:03 45.21161 7.01263 27892 ft 456 kts 140°
2026-05-07 13:03 45.18880 7.04411 28219 ft 459 kts 140°
2026-05-07 13:04 45.16581 7.07579 28542 ft 461 kts 140°
2026-05-07 13:04 45.14277 7.10746 28785 ft 464 kts 140°
2026-05-07 13:04 45.11979 7.13898 29079 ft 466 kts 139°
2026-05-07 13:04 45.09826 7.17369 29346 ft 474 kts 130°
2026-05-07 13:05 45.07917 7.21196 29616 ft 477 kts 129°
2026-05-07 13:05 45.06011 7.25052 29890 ft 479 kts 128°
2026-05-07 13:05 45.04095 7.28920 30104 ft 481 kts 128°
2026-05-07 13:05 45.02165 7.32796 30330 ft 483 kts 129°
2026-05-07 13:06 45.00271 7.36739 30528 ft 487 kts 124°
2026-05-07 13:06 44.98724 7.41041 30717 ft 493 kts 115°
2026-05-07 13:06 44.97640 7.45659 30992 ft 497 kts 105°
2026-05-07 13:06 44.96989 7.50459 31287 ft 498 kts 101°
2026-05-07 13:07 44.96406 7.55274 31581 ft 498 kts 102°
2026-05-07 13:07 44.95812 7.60092 31868 ft 498 kts 102°
2026-05-07 13:07 44.95214 7.64901 32163 ft 498 kts 102°
2026-05-07 13:07 44.94607 7.69730 32338 ft 501 kts 102°
2026-05-07 13:08 44.93997 7.74582 32567 ft 502 kts 102°
2026-05-07 13:08 44.93386 7.79436 32841 ft 502 kts 102°
2026-05-07 13:08 44.92773 7.84291 33128 ft 502 kts 102°
2026-05-07 13:08 44.92164 7.89151 33416 ft 503 kts 102°
2026-05-07 13:09 44.91588 7.94021 33703 ft 503 kts 101°
2026-05-07 13:09 44.91037 7.98886 33988 ft 502 kts 101°
2026-05-07 13:09 44.90496 8.03747 34248 ft 502 kts 101°
2026-05-07 13:09 44.89953 8.08611 34496 ft 502 kts 101°
2026-05-07 13:10 44.89403 8.13459 34748 ft 501 kts 102°
2026-05-07 13:10 44.88842 8.18302 35016 ft 500 kts 102°
2026-05-07 13:10 44.88274 8.23132 35272 ft 499 kts 102°
2026-05-07 13:10 44.87703 8.27945 35525 ft 498 kts 102°
2026-05-07 13:11 44.87131 8.32751 35766 ft 497 kts 102°
2026-05-07 13:11 44.86557 8.37548 35997 ft 496 kts 102°
2026-05-07 13:11 44.85984 8.42339 36206 ft 495 kts 102°
2026-05-07 13:11 44.85409 8.47126 36411 ft 495 kts 102°
2026-05-07 13:12 44.84835 8.51898 36644 ft 494 kts 102°
2026-05-07 13:12 44.84261 8.56657 36858 ft 493 kts 102°
2026-05-07 13:12 44.83685 8.61425 36961 ft 493 kts 102°
2026-05-07 13:12 44.83110 8.66177 36976 ft 492 kts 102°
2026-05-07 13:13 44.81958 8.75619 36977 ft 491 kts 102°
2026-05-07 13:13 44.80789 8.85108 36988 ft 491 kts 102°
2026-05-07 13:14 44.79610 8.94596 36984 ft 492 kts 102°
2026-05-07 13:14 44.78430 9.04083 36992 ft 492 kts 103°
2026-05-07 13:15 44.77243 9.13553 36986 ft 492 kts 103°
2026-05-07 13:15 44.76046 9.23031 36983 ft 492 kts 103°
2026-05-07 13:16 44.74838 9.32508 36990 ft 492 kts 103°
2026-05-07 13:16 44.73632 9.41942 36992 ft 492 kts 103°
2026-05-07 13:17 44.72410 9.51417 36985 ft 493 kts 103°
2026-05-07 13:17 44.71171 9.60957 36979 ft 493 kts 103°
2026-05-07 13:18 44.69934 9.70370 36977 ft 493 kts 103°
2026-05-07 13:18 44.68678 9.79852 36975 ft 493 kts 103°
2026-05-07 13:19 44.67422 9.89340 36970 ft 494 kts 103°
2026-05-07 13:19 44.66156 9.98832 36972 ft 495 kts 104°
2026-05-07 13:20 44.64874 10.08339 36970 ft 495 kts 103°
2026-05-07 13:20 44.63592 10.17831 36976 ft 495 kts 104°
2026-05-07 13:21 44.62305 10.27323 36962 ft 495 kts 104°
2026-05-07 13:21 44.61008 10.36801 36968 ft 495 kts 104°
2026-05-07 13:22 44.59696 10.46286 36973 ft 494 kts 104°
2026-05-07 13:22 44.58378 10.55748 36981 ft 494 kts 104°
2026-05-07 13:23 44.57054 10.65207 36967 ft 494 kts 104°
2026-05-07 13:23 44.55733 10.74654 36976 ft 493 kts 104°
2026-05-07 13:24 44.54410 10.84031 36978 ft 493 kts 104°
2026-05-07 13:24 44.53061 10.93440 36979 ft 493 kts 105°
2026-05-07 13:25 44.51424 11.02723 36978 ft 489 kts 110°
2026-05-07 13:25 44.49465 11.11869 36976 ft 489 kts 110°
2026-05-07 13:26 44.47506 11.20996 36978 ft 489 kts 110°
2026-05-07 13:26 44.45541 11.30103 36972 ft 489 kts 110°
2026-05-07 13:27 44.43565 11.39208 36961 ft 489 kts 111°
2026-05-07 13:27 44.41579 11.48304 36954 ft 488 kts 111°
2026-05-07 13:28 44.39599 11.57386 36959 ft 488 kts 111°
2026-05-07 13:28 44.37627 11.66413 36972 ft 487 kts 111°
2026-05-07 13:29 44.35631 11.75459 36974 ft 487 kts 111°
2026-05-07 13:29 44.33626 11.84497 36977 ft 487 kts 111°
2026-05-07 13:30 44.31615 11.93530 36978 ft 487 kts 111°
2026-05-07 13:30 44.29595 12.02551 36990 ft 487 kts 111°
2026-05-07 13:31 44.27574 12.11581 36976 ft 487 kts 111°
2026-05-07 13:31 44.25546 12.20590 36983 ft 486 kts 111°
2026-05-07 13:32 44.23512 12.29572 36990 ft 486 kts 112°
2026-05-07 13:32 44.21463 12.38566 36995 ft 486 kts 112°
2026-05-07 13:33 44.19414 12.47550 36974 ft 486 kts 112°
2026-05-07 13:33 44.17365 12.56520 36988 ft 486 kts 112°
2026-05-07 13:34 44.14270 12.69964 36988 ft 486 kts 112°
2026-05-07 13:35 44.12208 12.78878 36980 ft 486 kts 112°
2026-05-07 13:35 44.10130 12.87831 37001 ft 486 kts 112°
2026-05-07 13:36 44.08042 12.96760 37001 ft 485 kts 112°
2026-05-07 13:36 44.05947 13.05691 37001 ft 485 kts 112°
2026-05-07 13:37 44.03854 13.14613 36978 ft 485 kts 112°
2026-05-07 13:37 44.01750 13.23526 36988 ft 485 kts 112°
2026-05-07 13:38 43.99994 13.30928 36993 ft 485 kts 112°
2026-05-07 13:38 43.97876 13.39828 36995 ft 486 kts 112°
2026-05-07 13:39 43.95752 13.48722 36998 ft 486 kts 112°
2026-05-07 13:39 43.93615 13.57623 36991 ft 486 kts 112°
2026-05-07 13:40 43.91476 13.66513 36997 ft 486 kts 112°
2026-05-07 13:40 43.89332 13.75411 37004 ft 486 kts 113°
2026-05-07 13:41 43.87178 13.84282 37011 ft 486 kts 113°
2026-05-07 13:41 43.85015 13.93159 37011 ft 486 kts 113°
2026-05-07 13:42 43.82849 14.02029 37016 ft 486 kts 113°
2026-05-07 13:42 43.80671 14.10891 37023 ft 486 kts 113°
2026-05-07 13:43 43.78318 14.19558 37023 ft 481 kts 121°
2026-05-07 13:43 43.75426 14.27905 37004 ft 481 kts 120°
2026-05-07 13:44 43.72542 14.36261 37011 ft 481 kts 120°
2026-05-07 13:44 43.69657 14.44618 37016 ft 481 kts 120°
2026-05-07 13:45 43.66755 14.52951 37009 ft 481 kts 121°
2026-05-07 13:45 43.63849 14.61292 37015 ft 482 kts 121°
2026-05-07 13:46 43.60947 14.69621 37020 ft 482 kts 121°
2026-05-07 13:46 43.58031 14.77940 37024 ft 482 kts 121°
2026-05-07 13:47 43.55096 14.86264 37030 ft 482 kts 121°
2026-05-07 13:47 43.52168 14.94581 37016 ft 482 kts 121°
2026-05-07 13:48 43.49252 15.02836 37025 ft 482 kts 121°
2026-05-07 13:48 43.46301 15.11120 37031 ft 481 kts 121°
2026-05-07 13:49 43.43354 15.19394 37027 ft 481 kts 121°
2026-05-07 13:49 43.40403 15.27658 37027 ft 481 kts 121°
2026-05-07 13:50 43.37443 15.35917 36998 ft 481 kts 121°
2026-05-07 13:50 43.34487 15.44163 37004 ft 481 kts 121°
2026-05-07 13:51 43.31516 15.52413 37019 ft 481 kts 121°
2026-05-07 13:51 43.28545 15.60650 37023 ft 481 kts 121°
2026-05-07 13:52 43.25560 15.68881 37008 ft 481 kts 121°
2026-05-07 13:52 43.22571 15.77089 37015 ft 481 kts 121°
2026-05-07 13:53 43.19600 15.85242 37021 ft 480 kts 121°
2026-05-07 13:53 43.16589 15.93488 37029 ft 481 kts 121°
2026-05-07 13:54 43.13591 16.01669 37018 ft 481 kts 121°
2026-05-07 13:54 43.10596 16.09807 37031 ft 481 kts 121°
2026-05-07 13:55 43.07585 16.17975 37032 ft 481 kts 121°
2026-05-07 13:55 43.04562 16.26148 37030 ft 482 kts 121°
2026-05-07 13:56 43.01531 16.34321 37034 ft 482 kts 121°
2026-05-07 13:56 42.98491 16.42500 37034 ft 483 kts 121°
2026-05-07 13:57 42.95426 16.50692 37043 ft 484 kts 121°
2026-05-07 13:57 42.92358 16.58868 37046 ft 484 kts 121°
2026-05-07 13:58 42.89293 16.67050 37057 ft 484 kts 121°
2026-05-07 13:58 42.86224 16.75220 37045 ft 484 kts 121°
2026-05-07 13:59 42.83146 16.83367 37061 ft 483 kts 121°
2026-05-07 13:59 42.80089 16.91441 37061 ft 483 kts 121°
2026-05-07 14:00 42.77012 16.99556 37065 ft 482 kts 121°
2026-05-07 14:00 42.73916 17.07663 37033 ft 482 kts 121°
2026-05-07 14:01 42.70818 17.15765 37054 ft 483 kts 121°
2026-05-07 14:01 42.67716 17.23869 37059 ft 483 kts 121°
2026-05-07 14:02 42.64607 17.31979 37058 ft 484 kts 121°
2026-05-07 14:02 42.61497 17.40079 37039 ft 484 kts 121°
2026-05-07 14:03 42.58381 17.48175 37051 ft 484 kts 121°
2026-05-07 14:03 42.55251 17.56251 37062 ft 484 kts 121°
2026-05-07 14:04 42.52013 17.64245 37070 ft 483 kts 123°
2026-05-07 14:04 42.48606 17.72010 37070 ft 482 kts 125°
2026-05-07 14:04 42.46866 17.75911 36802 ft 482 kts 124°
2026-05-07 14:05 42.45144 17.79800 36174 ft 482 kts 124°
2026-05-07 14:05 42.43428 17.83708 35359 ft 485 kts 124°
2026-05-07 14:05 42.41695 17.87675 34455 ft 492 kts 124°
2026-05-07 14:05 42.39945 17.91686 33559 ft 497 kts 124°
2026-05-07 14:06 42.38203 17.95687 33051 ft 491 kts 124°
2026-05-07 14:06 42.36472 17.99665 32407 ft 488 kts 124°
2026-05-07 14:06 42.34754 18.03604 31799 ft 485 kts 124°
2026-05-07 14:06 42.33045 18.07511 31192 ft 481 kts 124°
2026-05-07 14:07 42.31344 18.11384 30588 ft 478 kts 124°
2026-05-07 14:07 42.29652 18.15228 29956 ft 475 kts 124°
2026-05-07 14:07 42.27969 18.19045 29351 ft 470 kts 124°
2026-05-07 14:07 42.26304 18.22820 28770 ft 465 kts 124°
2026-05-07 14:08 42.24658 18.26551 28210 ft 460 kts 124°
2026-05-07 14:08 42.23027 18.30242 27649 ft 456 kts 124°
2026-05-07 14:08 42.21410 18.33899 27114 ft 451 kts 124°
2026-05-07 14:08 42.19811 18.37503 26584 ft 446 kts 124°
2026-05-07 14:09 42.18225 18.41074 26069 ft 441 kts 124°
2026-05-07 14:09 42.16678 18.44557 25560 ft 437 kts 124°
2026-05-07 14:09 42.15127 18.48046 25075 ft 432 kts 124°
2026-05-07 14:09 42.13590 18.51502 24569 ft 428 kts 124°
2026-05-07 14:10 42.12065 18.54925 24074 ft 424 kts 124°
2026-05-07 14:10 42.10549 18.58319 23540 ft 421 kts 124°
2026-05-07 14:10 42.09046 18.61681 23002 ft 417 kts 124°
2026-05-07 14:10 42.07560 18.65004 22499 ft 413 kts 124°
2026-05-07 14:11 42.06084 18.68303 21994 ft 409 kts 124°
2026-05-07 14:11 42.04619 18.71568 21487 ft 406 kts 124°
2026-05-07 14:11 42.03167 18.74802 20986 ft 403 kts 124°
2026-05-07 14:11 42.01720 18.78017 20478 ft 401 kts 125°
2026-05-07 14:12 42.00275 18.81220 19968 ft 399 kts 125°
2026-05-07 14:12 41.98837 18.84414 19476 ft 398 kts 125°
2026-05-07 14:12 41.97404 18.87602 18967 ft 397 kts 125°
2026-05-07 14:12 41.95976 18.90779 18485 ft 396 kts 125°
2026-05-07 14:13 41.94555 18.93938 18000 ft 393 kts 125°
2026-05-07 14:13 41.93139 18.97073 17496 ft 391 kts 125°
2026-05-07 14:13 41.91736 19.00176 16997 ft 389 kts 125°
2026-05-07 14:13 41.90343 19.03253 16581 ft 385 kts 125°
2026-05-07 14:14 41.88956 19.06314 16163 ft 381 kts 125°
2026-05-07 14:14 41.87575 19.09350 15684 ft 380 kts 125°
2026-05-07 14:14 41.86209 19.12346 15256 ft 372 kts 124°
2026-05-07 14:14 41.84866 19.15293 14639 ft 368 kts 124°
2026-05-07 14:15 41.83536 19.18214 14192 ft 367 kts 124°
2026-05-07 14:15 41.82207 19.21134 13711 ft 367 kts 124°
2026-05-07 14:15 41.80880 19.24045 13241 ft 365 kts 124°
2026-05-07 14:15 41.79559 19.26945 12777 ft 362 kts 124°
2026-05-07 14:16 41.78252 19.29805 12390 ft 357 kts 124°
2026-05-07 14:16 41.76833 19.32504 11911 ft 351 kts 134°
2026-05-07 14:16 41.75285 19.34969 11249 ft 344 kts 133°
2026-05-07 14:16 41.73751 19.37416 10601 ft 336 kts 133°
2026-05-07 14:17 41.72307 19.39730 10433 ft 312 kts 133°
2026-05-07 14:17 41.70945 19.41912 10009 ft 302 kts 133°
2026-05-07 14:17 41.69622 19.44021 9418 ft 296 kts 133°
2026-05-07 14:17 41.68305 19.46115 8779 ft 292 kts 133°
2026-05-07 14:18 41.66986 19.48212 8132 ft 289 kts 133°
2026-05-07 14:18 41.65698 19.50260 7496 ft 286 kts 133°
2026-05-07 14:18 41.64574 19.52435 6892 ft 285 kts 118°
2026-05-07 14:18 41.63988 19.54957 6225 ft 286 kts 99°
2026-05-07 14:19 41.63998 19.57588 5468 ft 289 kts 85°
2026-05-07 14:19 41.64212 19.60209 5096 ft 275 kts 86°
2026-05-07 14:19 41.64406 19.62687 4942 ft 254 kts 87°
2026-05-07 14:19 41.64578 19.64933 4826 ft 241 kts 89°
2026-05-07 14:20 41.64359 19.67064 4710 ft 226 kts 119°
2026-05-07 14:20 41.63779 19.68202 4636 ft 215 kts 139°
2026-05-07 14:20 41.62041 19.69341 4143 ft 216 kts 175°
2026-05-07 14:20 41.60523 19.69527 3765 ft 222 kts 175°
2026-05-07 14:21 41.59476 19.69659 3497 ft 225 kts 175°
2026-05-07 14:21 41.57404 19.69933 2995 ft 224 kts 175°
2026-05-07 14:21 41.55869 19.70138 2701 ft 220 kts 174°
2026-05-07 14:21 41.54376 19.70338 2389 ft 211 kts 174°
2026-05-07 14:22 41.52936 19.70530 2121 ft 205 kts 174°
2026-05-07 14:22 41.51982 19.70657 1938 ft 203 kts 175°
2026-05-07 14:22 41.50611 19.70840 1694 ft 193 kts 174°
2026-05-07 14:22 41.49325 19.71012 1438 ft 178 kts 174°
2026-05-07 14:23 41.48135 19.71170 1190 ft 166 kts 175°
2026-05-07 14:23 41.47033 19.71317 990 ft 152 kts 175°
2026-05-07 14:23 41.46003 19.71455 811 ft 146 kts 177°
2026-05-07 14:23 41.45002 19.71588 612 ft 144 kts 176°
2026-05-07 14:24 41.44000 19.71725 438 ft 145 kts 176°
2026-05-07 14:24 41.42996 19.71869 221 ft 145 kts 179°
2026-05-07 14:24 41.42018 19.71992 119 ft 131 kts 176°
2026-05-07 14:24 41.41267 19.72084 123 ft 84 kts 174°
2026-05-07 14:25 41.40860 19.72138 125 ft 34 kts 174°
2026-05-07 14:25 41.40741 19.72154 128 ft 20 kts 174°
2026-05-07 14:25 41.40667 19.72022 124 ft 16 kts 257°
2026-05-07 14:25 41.40642 19.71868 128 ft 16 kts 257°
2026-05-07 14:26 41.40676 19.71769 127 ft 14 kts
2026-05-07 14:26 41.40770 19.71755 123 ft 14 kts 353°
2026-05-07 14:26 41.40881 19.71732 122 ft 18 kts 351°
2026-05-07 14:26 41.41011 19.71706 125 ft 20 kts 353°
2026-05-07 14:27 41.41157 19.71685 121 ft 22 kts 355°
2026-05-07 14:27 41.41318 19.71665 122 ft 24 kts 354°
2026-05-07 14:27 41.41493 19.71640 122 ft 26 kts 354°
2026-05-07 14:27 41.41679 19.71616 117 ft 28 kts 353°
2026-05-07 14:28 41.41863 19.71591 116 ft 27 kts 354°
2026-05-07 14:28 41.42037 19.71567 116 ft 22 kts 353°
2026-05-07 14:28 41.42136 19.71552 118 ft 5 kts 353°
2026-05-07 14:28 41.42148 19.71524 116 ft 4 kts 275°
2026-05-07 14:29 41.42146 19.71491 115 ft 0 kts 264°